Vertical_Velocity
0 3 6 5 -1 -2 -3 -6 7 -4 1 -1 1 -0 -2 4 2 -3 -2 5 1 -1 1 1 3 5 1 -4 -2 -1 -2 0 2 1 1 3 -3 2 1 -1 0 -2 -3 -2 -0 -4 -0 -3 -4
0 -1 2 4 1 -1 -4 3 -3 6 2 12 20 6 3 -1 2 2 -1 1 1 2 2 4 2 4 -3 1 -4 1 1 0 -0 3 -1 -0 4 0 -0 1 -1 -3 -4 -0 -3 -1 -5 1 -2
1 0 3 -0 -4 -6 -1 7 -3 0 7 3 -4 -0 1 0 5 1 -1 3 1 3 -1 -2 1 3 1 1 -0 2 3 0 -1 -0 2 2 4 0 6 -3 1 0 -4 -5 -2 -5 -2 -4 -1
2 1 -0 -6 -0 0 3 -2 1 7 -4 -4 0 -0 4 -5 -3 -0 5 5 2 1 1 2 6 8 5 3 7 2 -3 -2 3 1 2 2 5 -1 5 -5 -1 -1 -1 0 -1 2 -5 1 -3
1 -2 -7 -3 2 -2 -0 -2 -1 4 5 1 0 0 2 -0 -2 0 8 8 5 5 25 8 7 2 9 3 3 4 -3 -2 3 -5 -3 6 5 -2 3 1 -3 2 -3 -3 -4 2 -1 -2 -5
-1 -3 3 -1 -2 2 -3 -2 -0 1 -0 2 -5 1 -2 3 -1 -1 -2 -8 6 21 11 20 24 4 8 5 7 -5 -2 3 -6 1 -0 -1 2 -1 3 -4 3 -1 -2 0 -1 3 -6 -0 2
-0 -1 -4 -3 -1 -3 -2 -2 3 -4 -5 6 2 -4 -3 -9 -2 -0 -8 -11 9 36 33 36 53 44 11 8 8 1 -7 -8 5 5 1 -0 2 3 -1 2 -1 -4 -2 -4 -7 -2 -2 -1 1
-3 3 -1 -3 -1 1 1 2 0 9 -3 -4 -4 6 -1 -6 5 1 0 -1 -10 -26 19 46 76 24 16 11 2 -13 -12 -4 1 3 -3 -0 3 1 1 -0 3 0 -2 3 -6 -4 -4 1 -2
-0 5 1 -3 -2 -2 2 1 2 -4 0 -0 3 2 -2 -0 3 3 3 5 6 -9 10 -26 -12 -14 -19 -25 -29 -4 5 4 2 3 2 0 -0 1 2 1 -4 -1 2 -2 -1 2 -3 2 1
3 2 -5 -0 2 7 -4 -6 3 1 3 0 4 -3 8 2 4 1 -1 -4 2 8 -9 -16 -16 -11 -22 -6 2 2 8 -1 2 -1 1 -3 4 -1 -5 1 2 -0 -3 2 -4 -2 -2 2 -1
-0 1 2 -2 3 1 1 2 -1 -1 2 5 -2 4 5 10 -2 3 3 11 -2 -1 -32 -2 -1 0 1 -4 -6 1 -1 1 5 0 -1 2 4 3 6 2 4 -0 -0 -4 -2 1 1 -1 -7
-0 2 7 -4 8 6 -0 6 5 -4 1 3 11 8 15 -0 -20 3 -2 -4 -6 -6 -4 -5 -2 -19 -8 -8 -13 2 6 -1 9 -1 -0 2 -2 0 5 3 5 -2 -4 -4 -1 1 1 3 0
-5 6 -2 1 3 2 1 -1 -3 3 -1 8 -7 -23 -28 -16 -12 -6 0 -11 -9 -3 -5 2 1 4 -6 2 0 -2 2 -1 4 1 -3 1 -1 3 2 -4 1 -7 2 1 -2 -2 -4 -1 1
2 -1 -5 -4 6 2 -1 4 -5 0 -6 -5 4 -9 -14 -13 -4 3 1 -3 -2 1 1 2 1 1 -4 5 -5 5 3 -5 -4 -1 2 7 6 3 -7 3 -2 -6 4 -3 3 -1 -1 -1 5
2 -1 -3 -0 7 -0 -2 -5 -0 -1 -4 0 -5 -1 -5 -7 -2 -5 4 5 1 -6 -8 -5 -1 -1 1 -5 -0 -2 -1 -1 4 2 1 1 3 -2 -0 -0 0 -0 1 2 0 5 3 3 2
2 3 -3 2 5 -4 -1 -1 5 3 -3 -1 13 -1 4 1 -1 9 5 -1 1 4 7 -0 0 -4 -6 -7 5 0 -1 6 1 6 5 0 -4 3 -2 3 2 5 -1 5 3 -1 3 -1 1
7 -3 -3 1 11 -6 5 5 0 3 5 -1 -3 5 2 3 -1 2 2 4 11 7 11 11 6 3 4 3 1 4 3 1 8 4 -7 2 4 2 -0 2 1 4 6 -2 -1 2 4 1 -3
3 2 9 9 12 -7 2 2 1 -0 -4 2 3 -4 -7 -4 -2 -4 1 3 4 4 -1 2 -1 2 -0 0 -0 0 -2 -3 -0 1 -0 1 0 -2 4 -6 7 5 -1 -3 -0 1 -2 -0 0
-0 2 1 -3 2 4 -4 10 -3 5 -5 -7 -1 -12 -9 -2 -3 2 -1 2 -4 2 -1 2 2 2 2 3 2 0 0 3 5 4 -2 3 -1 -1 0 4 4 -1 -5 -2 -0 -2 -3 -1 -1
-3 -6 -10 -3 4 6 6 7 7 -8 3 -2 -3 -3 -6 -0 -5 -2 -3 -3 -3 1 -3 -4 0 -4 2 -0 -0 1 1 4 -1 -6 3 -6 -2 2 3 3 -3 -4 -5 -4 -5 -4 -5 -4 -1
2 -1 -4 4 4 3 2 2 -1 5 4 3 -5 2 4 -0 -3 -2 -7 -3 2 -1 -4 -3 -3 -3 -2 1 -4 -3 -1 -2 1 -2 -2 3 2 -0 -2 -3 -3 -5 -4 -5 -5 -1 1 -2 -1
-8 10 -1 6 6 -2 6 -6 -7 -3 -3 -1 6 -3 -3 -2 3 -3 -3 -1 -4 -7 9 0 -1 2 3 -1 -1 -0 8 6 1 1 4 3 3 3 2 2 -0 -1 -2 -4 -6 -4 -1 -2 -2
-5 -5 9 -2 4 -1 -1 -3 -14 4 -4 -9 -6 -2 4 -5 -3 0 -3 10 8 -2 -1 6 7 10 3 8 2 -2 2 8 1 1 3 4 -1 -3 -6 -0 -0 -4 -2 1 -1 -3 -3 -2 -0
2 -6 1 1 3 -0 2 0 -4 -13 -16 -2 1 5 4 3 -4 -5 -0 0 5 4 0 29 3 3 2 8 16 5 13 1 0 5 3 -0 -2 4 -4 0 -2 3 -8 -2 -3 -1 -2 -1 1
-1 4 -3 -5 -3 -6 1 -0 -19 -5 -6 -4 2 7 6 7 1 1 -1 -0 3 -2 1 7 -2 15 4 2 2 9 -0 -1 2 0 -1 0 1 -3 1 -2 -2 3 -6 -2 -1 1 -2 -0 -1
-0 2 -2 -3 -2 -3 -1 -4 -26 2 7 7 -3 -8 1 3 8 -1 2 0 4 -0 12 1 -2 7 -1 -1 7 -2 -3 0 4 -2 -3 -3 -4 -2 1 -1 2 3 -3 1 2 -1 -4 0 -3
-7 -2 -1 1 -0 -1 -2 -3 -11 -7 10 2 -3 -3 1 5 6 0 8 1 -1 4 6 5 2 3 -2 2 2 0 2 3 -4 -3 1 2 -1 -1 1 1 9 -2 0 -0 -1 3 3 -1 -0
2 5 -2 -0 -3 -1 -2 -2 -13 -1 3 5 -1 1 2 -2 -1 -0 5 4 -0 10 5 2 -1 -3 -1 0 1 -0 -6 -4 3 4 -0 -2 2 5 8 2 -1 2 1 2 0 -2 -3 1 3
1 1 -4 6 -2 -5 -2 -8 -8 -1 -4 -0 4 -4 -5 -0 4 4 0 -6 0 -0 -0 -1 -4 -6 -1 -2 -4 -5 -0 4 1 2 3 2 3 3 -2 -1 -0 1 4 -2 1 -1 2 1 1
-0 4 8 6 -4 -1 1 -19 -7 -3 -4 -4 -3 -3 -5 -7 -5 -9 -5 -2 1 4 4 -1 -2 -2 -2 1 2 1 0 0 3 4 3 5 4 2 1 -0 -0 0 2 1 -1 -3 -5 -3 -3
Height
3128 3129 3129 3130 3136 3133 3133 3134 3133 3134 3133 3131 3132 3134 3134 3133 3134 3138 3134 3135 3136 3137 3139 3141 3145 3147 3150 3151 3155 3158 3159 3160 3162 3164 3163 3165 3165 3166 3166 3167 3168 3168 3168 3168 3167 3167 3166 3167 3167
3127 3128 3129 3129 3133 3133 3133 3133 3132 3131 3130 3130 3131 3133 3134 3133 3133 3133 3133 3134 3135 3136 3137 3140 3143 3146 3149 3152 3155 3156 3158 3159 3162 3164 3164 3166 3165 3167 3167 3168 3169 3169 3169 3170 3169 3167 3166 3166 3166
3126 3127 3130 3130 3132 3132 3131 3131 3131 3131 3130 3131 3133 3133 3133 3132 3131 3130 3131 3131 3132 3134 3136 3138 3139 3142 3145 3149 3152 3153 3156 3159 3162 3163 3164 3167 3167 3168 3168 3169 3170 3170 3171 3170 3170 3168 3166 3165 3167
3125 3128 3131 3131 3130 3131 3130 3129 3128 3130 3131 3132 3132 3133 3132 3132 3132 3130 3130 3132 3132 3132 3134 3135 3138 3141 3143 3147 3149 3152 3156 3159 3161 3163 3166 3168 3168 3169 3169 3169 3170 3170 3171 3171 3172 3171 3167 3168 3168
3125 3127 3130 3130 3130 3130 3128 3127 3126 3126 3130 3129 3132 3132 3131 3132 3131 3130 3130 3131 3133 3133 3133 3132 3135 3138 3142 3145 3149 3152 3156 3159 3161 3164 3166 3168 3169 3168 3169 3169 3170 3170 3171 3172 3173 3173 3171 3167 3169
3126 3128 3129 3129 3129 3129 3126 3126 3126 3128 3128 3128 3129 3129 3129 3129 3129 3128 3127 3127 3130 3131 3129 3128 3129 3134 3140 3145 3148 3152 3156 3159 3163 3163 3165 3168 3169 3169 3169 3169 3170 3171 3171 3172 3174 3173 3173 3170 3169
3126 3126 3127 3128 3128 3127 3125 3125 3125 3125 3126 3127 3126 3126 3126 3126 3126 3125 3124 3123 3123 3123 3121 3120 3119 3128 3136 3140 3146 3151 3155 3159 3161 3163 3166 3168 3169 3169 3169 3170 3170 3170 3171 3173 3174 3173 3171 3171 3168
3126 3125 3126 3128 3127 3127 3125 3125 3125 3125 3125 3125 3124 3124 3123 3125 3126 3124 3123 3122 3123 3119 3121 3118 3115 3117 3130 3138 3144 3152 3153 3157 3163 3164 3165 3167 3168 3169 3169 3170 3170 3171 3171 3172 3171 3171 3171 3169 3166
3124 3124 3125 3127 3126 3126 3124 3123 3122 3123 3125 3124 3124 3124 3124 3125 3127 3124 3125 3125 3123 3123 3120 3118 3121 3119 3130 3137 3146 3150 3154 3158 3162 3164 3166 3167 3168 3168 3169 3170 3171 3171 3171 3171 3170 3169 3168 3165 3164
3122 3124 3125 3125 3124 3125 3122 3122 3122 3123 3123 3123 3123 3124 3124 3124 3126 3126 3124 3124 3123 3119 3123 3122 3125 3129 3136 3143 3147 3152 3156 3159 3162 3164 3165 3167 3168 3169 3170 3171 3170 3170 3170 3170 3168 3167 3164 3164 3161
3123 3123 3124 3124 3124 3124 3123 3122 3121 3122 3123 3123 3124 3124 3124 3123 3124 3124 3121 3122 3122 3126 3128 3131 3133 3136 3138 3143 3148 3152 3156 3160 3163 3165 3167 3168 3169 3170 3169 3169 3168 3168 3169 3168 3166 3164 3162 3159 3158
3124 3124 3123 3123 3123 3124 3123 3121 3121 3123 3123 3123 3123 3124 3123 3120 3123 3125 3126 3128 3128 3130 3133 3132 3136 3138 3139 3145 3150 3154 3158 3162 3164 3165 3168 3168 3168 3168 3167 3168 3167 3167 3166 3164 3162 3161 3159 3156 3154
3122 3121 3121 3122 3123 3124 3123 3122 3122 3122 3122 3123 3126 3127 3123 3122 3122 3127 3129 3131 3130 3132 3133 3135 3138 3141 3144 3149 3152 3156 3160 3162 3165 3166 3168 3167 3167 3166 3166 3165 3163 3163 3162 3161 3159 3158 3158 3156 3153
3121 3121 3122 3123 3123 3124 3125 3123 3122 3123 3124 3125 3125 3125 3123 3121 3124 3128 3130 3133 3134 3135 3137 3139 3142 3144 3146 3151 3154 3158 3161 3164 3164 3165 3165 3164 3164 3163 3161 3161 3160 3160 3161 3159 3158 3157 3155 3153 3150
3122 3122 3122 3122 3123 3125 3126 3124 3123 3124 3124 3125 3125 3125 3126 3126 3127 3131 3134 3134 3136 3138 3141 3142 3144 3146 3149 3154 3155 3160 3161 3162 3163 3163 3163 3162 3161 3159 3158 3159 3159 3158 3158 3156 3156 3153 3151 3149 3147
3122 3122 3123 3124 3125 3126 3127 3126 3125 3124 3124 3124 3125 3127 3129 3130 3132 3133 3134 3136 3140 3142 3143 3144 3147 3149 3152 3153 3156 3160 3160 3162 3162 3161 3161 3161 3160 3158 3157 3158 3157 3156 3155 3154 3153 3151 3147 3145 3142
3124 3123 3124 3124 3126 3126 3126 3126 3127 3125 3126 3126 3126 3129 3131 3132 3133 3135 3136 3138 3141 3143 3145 3146 3147 3149 3152 3155 3157 3158 3159 3160 3161 3160 3160 3159 3159 3158 3157 3156 3156 3154 3152 3151 3150 3148 3145 3141 3138
3123 3123 3124 3124 3126 3125 3126 3126 3126 3127 3127 3128 3127 3130 3132 3134 3135 3136 3137 3139 3141 3144 3147 3148 3149 3152 3153 3154 3156 3158 3158 3158 3158 3158 3158 3158 3158 3157 3156 3155 3154 3151 3149 3148 3147 3145 3140 3136 3134
3123 3122 3121 3122 3124 3124 3123 3125 3125 3126 3128 3130 3129 3129 3132 3133 3136 3137 3139 3141 3142 3144 3148 3149 3150 3151 3151 3153 3154 3154 3155 3155 3155 3155 3156 3156 3156 3155 3153 3153 3151 3149 3147 3146 3143 3139 3135 3130 3127
3122 3122 3122 3120 3118 3118 3119 3121 3124 3125 3126 3127 3128 3128 3130 3132 3134 3137 3139 3142 3143 3144 3146 3147 3148 3148 3149 3150 3151 3152 3153 3154 3154 3154 3154 3152 3152 3151 3150 3149 3147 3146 3143 3140 3137 3133 3129 3125 3121
3123 3122 3120 3119 3116 3116 3117 3120 3122 3124 3124 3125 3127 3128 3129 3131 3133 3134 3137 3140 3142 3143 3144 3145 3147 3147 3148 3149 3150 3151 3151 3151 3151 3150 3149 3149 3149 3148 3146 3144 3142 3140 3137 3134 3130 3126 3122 3117 3114
3121 3120 3119 3118 3118 3117 3118 3120 3119 3120 3122 3123 3124 3124 3127 3130 3131 3133 3134 3137 3140 3142 3142 3142 3142 3144 3146 3145 3146 3146 3147 3147 3146 3146 3146 3147 3145 3143 3141 3139 3136 3133 3130 3127 3122 3118 3113 3109 3105
3120 3118 3118 3118 3118 3119 3120 3121 3118 3117 3119 3119 3120 3121 3124 3126 3128 3130 3132 3134 3136 3138 3138 3138 3140 3142 3142 3141 3142 3141 3142 3143 3143 3142 3142 3142 3140 3137 3135 3132 3128 3125 3120 3116 3114 3109 3105 3101 3097
3119 3118 3118 3117 3116 3117 3117 3119 3116 3115 3115 3115 3116 3118 3120 3122 3122 3124 3127 3129 3131 3133 3133 3134 3137 3137 3137 3138 3138 3137 3139 3138 3137 3137 3137 3136 3133 3130 3128 3124 3119 3115 3113 3108 3105 3101 3096 3093 3088
3117 3117 3116 3118 3119 3118 3115 3116 3113 3112 3111 3110 3112 3113 3116 3119 3119 3120 3123 3125 3128 3131 3133 3132 3133 3134 3135 3131 3132 3134 3133 3132 3132 3131 3130 3129 3126 3123 3118 3114 3110 3108 3104 3100 3097 3093 3088 3084 3079
3116 3116 3117 3119 3121 3116 3114 3111 3107 3105 3107 3107 3107 3108 3111 3114 3116 3118 3121 3123 3126 3128 3129 3129 3130 3129 3129 3127 3128 3127 3127 3126 3125 3124 3123 3120 3117 3114 3109 3106 3104 3099 3096 3092 3088 3084 3079 3075 3070
3114 3115 3116 3114 3115 3115 3112 3109 3106 3104 3104 3104 3104 3105 3107 3110 3113 3115 3118 3120 3122 3124 3126 3125 3124 3123 3121 3120 3121 3121 3121 3120 3118 3116 3115 3113 3110 3105 3102 3100 3096 3090 3087 3082 3078 3074 3071 3066 3061
3113 3114 3115 3114 3116 3115 3109 3107 3104 3103 3103 3102 3105 3105 3106 3108 3110 3112 3114 3116 3118 3122 3122 3121 3119 3117 3116 3115 3116 3115 3113 3112 3111 3110 3108 3105 3102 3099 3096 3093 3087 3084 3081 3076 3072 3068 3063 3057 3053
3110 3108 3111 3111 3111 3110 3113 3106 3104 3103 3102 3103 3104 3104 3104 3105 3107 3109 3112 3113 3116 3118 3117 3116 3114 3113 3113 3112 3110 3109 3107 3106 3105 3104 3102 3099 3096 3092 3088 3085 3081 3077 3073 3068 3065 3060 3055 3050 3045
3103 3104 3106 3106 3107 3106 3105 3103 3104 3103 3102 3103 3104 3104 3104 3104 3105 3107 3108 3109 3110 3112 3112 3112 3111 3110 3109 3108 3105 3104 3103 3102 3100 3098 3096 3094 3090 3086 3082 3078 3074 3069 3064 3061 3057 3052 3046 3042 3038